Regional Weather Roundup
Issued by NWS Little Rock, AR

Home | Current Version | Previous Version | Text Only | Print | Product List | Glossary On
Versions: 1 2 3 4 5 6 7 8 9 10 11 12 13 14 15 16 17 18 19 20 21 22 23 24 25 26 27 28 29 30 31 32 33 34 35 36 37 38 39 40 41 42 43 44 45 46 47 48 49 50
000
ASUS44 KLZK 290805
RWRLZK

WEATHER ROUNDUP FOR ARKANSAS
NATIONAL WEATHER SERVICE LITTLE ROCK AR
300 AM CDT SAT AUG 29 2015

NOTE: "FAIR" INDICATES FEW OR NO CLOUDS BELOW 12,000 FEET WITH NO
SIGNIFICANT WEATHER AND/OR OBSTRUCTIONS TO VISIBILITY.

ARZ001-003-010-029-290900-
NORTHWEST ARKANSAS

CITY           SKY/WX    TMP DP  RH WIND       PRES   REMARKS
FAYETTEVILLE   CLOUDY    73  61  65 SW5       30.01S
FORT SMITH     CLOUDY    73  64  73 NE6       29.98F
BENTONVILLE    PTCLDY    70  61  73 CALM      30.00F
ROGERS         PTCLDY    70  62  76 SE6       30.01F
SILOAM SPGS    MOCLDY    72  57  60 S3        29.98F
HIGHFILL       PTCLDY    70  63  78 S7        30.00F
$$

ARZ004-005-016-290900-
NORTH CENTRAL ARKANSAS

CITY           SKY/WX    TMP DP  RH WIND       PRES   REMARKS
BATESVILLE     MOCLDY    66  63  88 CALM      30.01R
FLIPPIN        CLOUDY    68  59  73 CALM      30.02F
MTN HOME       CLOUDY    68  63  84 CALM      30.03F
$$

ARZ040-041-290900-
WEST CENTRAL ARKANSAS

CITY           SKY/WX    TMP DP  RH WIND       PRES   REMARKS
MENA           CLOUDY    70  68  94 CALM      30.03S
MOUNT IDA      CLOUDY    65  63  93 CALM      30.00S
$$

ARZ009-017-025-026-028-290900-
NORTHEAST ARKANSAS

CITY           SKY/WX    TMP DP  RH WIND       PRES   REMARKS
JONESBORO      CLOUDY    68  67  96 CALM      30.01F
NEWPORT        CLOUDY    72  68  87 CALM      30.01F
WALNUT RIDGE   CLOUDY    72  64  78 CALM      30.01S
BLYTHEVILLE    CLOUDY    73  69  87 S6        30.02S
$$

ARZ022-023-033-042-044-290900-
CENTRAL ARKANSAS

CITY           SKY/WX    TMP DP  RH WIND       PRES   REMARKS
LITTLE ROCK    CLOUDY    72  63  73 CALM      30.01S
N LITTLE ROCK    N/A     74  62  66 S5        30.01S
JACKSONVILLE   CLOUDY    69  63  83 CALM      30.00F
SEARCY         CLOUDY    68  66  93 W3        30.01F
HOT SPRINGS    MOCLDY    68  62  81 CALM      30.01F
RUSSELLVILLE   CLOUDY    69  65  86 CALM      30.01S
$$

ARZ036-290900-
EAST ARKANSAS

CITY           SKY/WX    TMP DP  RH WIND       PRES   REMARKS
WEST MEMPHIS   PTCLDY    68  67  96 SE5       30.01S
$$

ARZ050-053-066-070-073-290900-
SOUTHWEST ARKANSAS

CITY           SKY/WX    TMP DP  RH WIND       PRES   REMARKS
ARKADELPHIA    FAIR      66  65  97 CALM      30.01F
CAMDEN         CLOUDY    66  63  88 CALM      30.00F
TEXARKANA      CLOUDY    70  63  78 SE5       30.00F
EL DORADO      MOCLDY    67  63  87 CALM      30.01S
DE QUEEN       CLOUDY    67  65  93 CALM      29.99S
$$

ARZ056-057-069-290900-
SOUTHEAST ARKANSAS

CITY           SKY/WX    TMP DP  RH WIND       PRES   REMARKS
PINE BLUFF     CLOUDY    67  64  90 CALM      30.00F
STUTTGART      CLOUDY    72  63  73 SE3       30.00F
MONTICELLO     PTCLDY    66  63  90 CALM      30.01F

$$




USA.gov is the U.S. government's official web portal to all federal, state and local government web resources and services.